Franklin, PA

3:38 AM EST on December 11, 2019 (GMT -0500)
Venango Regional

Weather History for KFKL - October, 2019

Change the Weather History Date:

Monday, October 7, 2019

  Actual Average Record
Temperature  
Mean Temperature 52 °F -  
Max Temperature 57 °F 64 °F 87 °F (1946)
Min Temperature 48 °F 42 °F 25 °F (1935)
Degree Days  
Heating Degree Days 12    
Growing Degree Days 2 (Base 50)    
Moisture  
Dew Point 52 °F    
Average Humidity 96    
Maximum Humidity 100    
Minimum Humidity 84    
Precipitation  
Precipitation 0.46 in - - ()
Sea Level Pressure  
Sea Level Pressure 30.18 in    
Wind  
Wind Speed 2 mph (SW)    
Max Wind Speed 9 mph    
Max Gust Speed -    
Visibility 6 miles    
Events Fog , Rain    
Averages and records for this station are not official NWS values.
T = Trace of Precipitation, MM = Missing Value Source: NWS Daily Summary

Daily Weather History Graph

Daily Weather History Graph

Search for Another Location

Airport or City:

Astronomy

Oct. 07, 2019 Rise Set
Actual Time 7:22 AM EDT 6:51 PM EDT
Civil Twilight 6:54 AM EDT 7:19 PM EDT
Nautical Twilight 6:22 AM EDT 7:51 PM EDT
Astronomical Twilight 5:50 AM EDT 8:23 PM EDT
Moon 4:16 PM EDT (10/7) 1:08 AM EDT (10/7)
Length of Visible Light 12h 24m
Length of Day
11h 29m
Waxing Gibbous, 69% of the Moon is Illuminated
Oct 7
Waxing Gibbous
Oct 13
Full
Oct 21
Last Quarter
Oct 27
New
Nov 4
First Quarter

Hourly Weather History & Observations

Time (EDT) Temp. Dew Point Humidity Pressure Visibility Wind Dir Wind Speed Gust Speed Precip Events Conditions
12:26 AM 57.2 °F 57.2 °F 100% 30.13 in 3.0 mi Calm Calm - 0.01 in Rain Light Rain
12:40 AM 57.2 °F 57.2 °F 100% 30.13 in 1.8 mi Calm Calm - 0.01 in Rain Light Rain
12:46 AM 57.2 °F 57.2 °F 100% 30.13 in 0.8 mi Calm Calm - 0.01 in Rain Light Rain
12:52 AM 57.2 °F 57.2 °F 100% 30.13 in 1.2 mi Calm Calm - 0.01 in Rain Light Rain
12:56 AM 57.9 °F 57.9 °F 100% 30.13 in 3.0 mi Calm Calm - 0.01 in Rain Light Rain
1:10 AM 57.2 °F 57.2 °F 100% 30.13 in 8.0 mi Variable 5.8 mph - 0.00 in Rain Light Rain
1:54 AM 55.4 °F 53.6 °F 94% 30.14 in 10.0 mi NNW 8.1 mph - 0.02 in Rain Rain
1:56 AM 55.9 °F 53.1 °F 90% 30.14 in 9.0 mi NNW 9.2 mph - 0.02 in Rain Rain
2:07 AM 53.6 °F 51.8 °F 94% 30.14 in 10.0 mi Variable 4.6 mph - 0.02 in Rain Light Rain
2:43 AM 53.6 °F 51.8 °F 94% 30.12 in 8.0 mi Calm Calm - 0.07 in Rain Rain
2:56 AM 52.0 °F 51.1 °F 97% 30.12 in 9.0 mi Calm Calm - 0.10 in Rain Rain
3:48 AM 51.8 °F 51.8 °F 100% 30.12 in 8.0 mi West 3.5 mph - 0.14 in Rain Rain
3:56 AM 52.0 °F 51.1 °F 97% 30.12 in 8.0 mi Calm Calm - 0.17 in Rain Rain
4:28 AM 51.8 °F 51.8 °F 100% 30.12 in 7.0 mi Calm Calm - 0.06 in Rain Rain
4:35 AM 51.8 °F 51.8 °F 100% 30.13 in 7.0 mi Calm Calm - 0.07 in Rain Rain
4:48 AM 51.8 °F 51.8 °F 100% 30.14 in 8.0 mi Calm Calm - 0.10 in Rain Rain
4:56 AM 52.0 °F 51.1 °F 97% 30.14 in 7.0 mi Calm Calm - 0.11 in Rain Rain
5:56 AM 52.0 °F 51.1 °F 97% 30.14 in 10.0 mi Calm Calm - 0.02 in   Overcast
6:23 AM 51.8 °F 51.8 °F 100% 30.16 in 10.0 mi WNW 4.6 mph - 0.01 in Rain Light Rain
6:56 AM 52.0 °F 51.1 °F 97% 30.16 in 10.0 mi Calm Calm - 0.01 in Rain Light Rain
7:16 AM 51.8 °F 51.8 °F 100% 30.16 in 8.0 mi SW 4.6 mph - 0.00 in Rain Light Rain
7:46 AM 51.8 °F 51.8 °F 100% 30.16 in 10.0 mi SW 4.6 mph - 0.00 in Rain Light Rain
7:56 AM 52.0 °F 51.1 °F 97% 30.17 in 10.0 mi SW 3.5 mph - 0.01 in Rain Light Rain
8:56 AM 52.0 °F 51.1 °F 97% 30.18 in 10.0 mi SSW 5.8 mph - 0.01 in Rain Light Rain
9:56 AM 53.1 °F 52.0 °F 96% 30.17 in 10.0 mi SSW 5.8 mph - 0.00 in Rain Light Rain
10:42 AM 53.6 °F 51.8 °F 94% 30.18 in 10.0 mi SW 3.5 mph - 0.00 in   Overcast
10:56 AM 53.1 °F 52.0 °F 96% 30.19 in 10.0 mi SW 5.8 mph - 0.00 in Rain Light Rain
11:56 AM 54.0 °F 53.1 °F 97% 30.18 in 10.0 mi SW 5.8 mph - 0.00 in Rain Light Rain
12:56 PM 55.0 °F 53.1 °F 93% 30.19 in 10.0 mi SSW 8.1 mph - 0.00 in   Scattered Clouds
1:56 PM 55.9 °F 53.1 °F 90% 30.19 in 10.0 mi WSW 6.9 mph - N/A   Clear
2:56 PM 55.9 °F 51.1 °F 84% 30.17 in 10.0 mi SSW 5.8 mph - N/A   Clear
3:21 PM 55.4 °F 51.8 °F 88% 30.17 in 10.0 mi WSW 4.6 mph - N/A   Mostly Cloudy
3:28 PM 55.4 °F 51.8 °F 88% 30.17 in 10.0 mi Variable 4.6 mph - N/A   Scattered Clouds
3:56 PM 55.9 °F 51.1 °F 84% 30.18 in 10.0 mi SSW 5.8 mph - N/A   Partly Cloudy
4:56 PM 55.0 °F 52.0 °F 89% 30.18 in 10.0 mi SW 4.6 mph - N/A   Partly Cloudy
5:56 PM 54.0 °F 52.0 °F 93% 30.19 in 10.0 mi WSW 4.6 mph - N/A   Clear
6:56 PM 52.0 °F 51.1 °F 97% 30.20 in 10.0 mi West 4.6 mph - N/A   Clear
7:36 PM 51.8 °F 50.0 °F 94% - 10.0 mi Calm Calm - N/A   Partly Cloudy
8:16 PM 51.8 °F 50.0 °F 94% 30.21 in 1.5 mi SSW 3.5 mph - N/A   Scattered Clouds
8:20 PM 51.8 °F 50.0 °F 94% 30.21 in 0.8 mi SSW 3.5 mph - N/A   Mist
8:24 PM 50.0 °F 50.0 °F 100% 30.21 in 0.5 mi SW 3.5 mph - N/A Fog Fog
8:30 PM 50.0 °F 48.2 °F 94% 30.20 in 1.0 mi Calm Calm - N/A   Mist
8:37 PM 50.0 °F 50.0 °F 100% 30.21 in 2.0 mi Calm Calm - N/A   Partly Cloudy
8:54 PM 51.8 °F 50.0 °F 94% 30.21 in 1.0 mi SW 3.5 mph - N/A   Clear
8:56 PM 50.0 °F 50.0 °F 100% 30.23 in 0.8 mi Calm Calm - N/A   Mist
9:03 PM 50.0 °F 50.0 °F 100% 30.21 in 0.5 mi Calm Calm - N/A Fog Fog
9:19 PM 50.0 °F 48.2 °F 94% 30.22 in 0.2 mi SW 3.5 mph - N/A Fog Fog
9:31 PM 50.0 °F 50.0 °F 100% 30.22 in 0.5 mi SW 3.5 mph - N/A Fog Fog
9:53 PM 48.2 °F 48.2 °F 100% 30.24 in 0.8 mi SW 3.5 mph - N/A   Mist
9:56 PM 48.9 °F 48.9 °F 100% 30.25 in 0.8 mi SW 3.5 mph - N/A   Mist
10:03 PM 50.0 °F 50.0 °F 100% 30.24 in 0.5 mi WSW 3.5 mph - N/A Fog Fog
10:29 PM 50.0 °F 50.0 °F 100% 30.24 in 0.2 mi SW 3.5 mph - N/A Fog Fog
10:53 PM 48.2 °F 48.2 °F 100% 30.25 in 0.2 mi SW 3.5 mph - N/A Fog Fog
10:56 PM 48.9 °F 48.0 °F 97% 30.27 in 0.2 mi SW 3.5 mph - N/A Fog Fog
11:30 PM 48.2 °F 48.2 °F 100% 30.25 in 0.2 mi SW 4.6 mph - N/A Fog Fog
11:56 PM 48.9 °F 48.9 °F 100% 30.27 in 0.2 mi Calm Calm - N/A Fog Fog